N4BEW Weather Reports


time (UTC)temp
F
wind
direction
speed
knots
gust
knots
rain 1hr
in
rain 24hr
in
rain mn
in
humidity
%
barometer
mb
20260905232009 87 197 1.7 7.0 0.00 0.00 0.00 72 1013.2
20260905230457 88 241 1.7 6.1 0.00 0.00 0.00 71 1013.2
20260905224938 89 217 2.6 5.2 0.00 0.00 0.00 70 1013.5
20260905223418 89 84 3.5 6.1 0.00 0.00 0.00 68 1013.5
20260905221913 90 254 5.2 11.3 0.00 0.00 0.00 66 1013.2
20260905220408 93 216 5.2 9.6 0.00 0.00 0.00 62 1013.2
20260905214904 93 249 2.6 5.2 0.00 0.00 0.00 62 1013.2
20260905213400 94 203 4.3 7.8 0.00 0.00 0.00 61 1013.2
20260905211855 94 258 7.0 7.0 0.00 0.00 0.00 61 1013.2
20260905210351 98 224 1.7 2.6 0.00 0.00 0.00 47 1013.2
20260905204832 97 247 1.7 2.6 0.00 0.00 0.00 48 1013.2
20260905203328 97 196 1.7 4.3 0.00 0.00 0.00 46 1013.2
20260905201823 98 316 2.6 2.6 0.00 0.00 0.00 46 1013.5
20260905200304 98 199 0.9 1.7 0.00 0.00 0.00 46 1013.9
20260905194745 96 166 1.7 3.5 0.00 0.00 0.00 48 1014.2
20260905193241 97 139 5.2 6.1 0.00 0.00 0.00 47 1014.2
20260905191720 96 204 0.9 3.5 0.00 0.00 0.00 47 1014.6
20260905190214 99 161 3.5 3.5 0.00 0.00 0.00 45 1014.6
20260905184710 98 298 1.7 3.5 0.00 0.00 0.00 46 1014.6
20260905183150 96 136 4.3 6.1 0.00 0.00 0.00 48 1014.9
20260905181631 95 239 0.9 2.6 0.00 0.00 0.00 50 1015.2
20260905180127 96 306 4.3 6.1 0.00 0.00 0.00 48 1015.2
20260905174623 97 237 1.7 6.1 0.00 0.00 0.00 49 1015.2
20260905173115 96 166 6.1 6.1 0.00 0.00 0.00 51 1015.6
20260905171611 95 49 1.7 3.5 0.00 0.00 0.00 54 1015.9
20260905170106 95 231 2.6 3.5 0.00 0.00 0.00 54 1015.9
20260905164602 94 175 1.7 2.6 0.00 0.00 0.00 56 1016.3
20260905163059 94 240 1.7 2.6 0.00 0.00 0.00 55 1016.3